Location: Unspecified
(0.0000°N, 0.0000°E)
Time: 12:11:01
(UTC+02:00)

Iridium 76 - Visible Passes

Search period start: 24 April 2018 00:00
Search period end: 04 May 2018 00:00
Orbit: 761 x 765 km, 86.4° (Epoch: 23 April)

Date Brightness Start Highest point End Pass type
(mag) Time Alt. Az. Time Alt. Az. Time Alt. Az.
24 Apr 7.7 20:45:08 10° SSW 20:49:30 28° W 20:53:53 10° NNW visible
26 Apr 8.5 06:59:42 10° NE 07:02:47 16° E 07:05:53 10° SE visible
27 Apr 8.0 20:32:13 10° SW 20:36:25 26° W 20:40:37 10° NW visible
28 Apr 6.8 07:22:33 10° NNE 07:27:25 45° E 07:32:19 10° SSE visible
29 Apr 8.4 06:46:17 10° NE 06:49:42 18° E 06:53:07 10° SE visible
30 Apr 8.3 20:19:20 10° SW 20:23:19 23° W 20:27:20 10° NW visible
01 May 6.5 07:09:22 10° NNE 07:14:20 50° E 07:19:19 10° SSE visible
02 May 8.2 06:32:55 10° NE 06:36:37 20° E 06:40:18 10° SE visible
